Regional Weather Roundup
Issued by NWS Newport/Morehead, NC

Current Version | Previous Version | Graphics & Text | Print | Product List | Glossary Off
Versions: 1 2 3 4 5 6 7 8 9 10 11 12 13 14 15 16 17 18 19 20 21 22 23 24 25 26 27 28 29 30 31 32 33 34 35 36 37 38 39 40 41 42 43 44 45 46 47 48 49 50
238 ASUS42 KMHX 270625 RWRMHX WEATHER ROUNDUP FOR EASTERN NORTH CAROLINA NATIONAL WEATHER SERVICE NEWPORT/MOREHEAD CITY NC 200 AM EDT FRI MAY 27 2016 NOTE: "FAIR" INDICATES FEW OR NO CLOUDS BELOW 12,000 FEET WITH NO SIGNIFICANT WEATHER AND/OR OBSTRUCTIONS TO VISIBILITY NCZ015>017-031-032-045>047-102-103-270700- NORTH COAST CITY SKY/WX TMP DP RH WIND PRES REMARKS EDENTON CLEAR N/A N/A N/A SW6 30.14S ELIZABETH CITY CLEAR 69 63 81 SW8 30.14R KITTY HAWK CLEAR 70 64 80 SW6 30.13R MANTEO NOT AVBL $$ NCZ045>047-081-094-103-104-270700- CENTRAL COAST CITY SKY/WX TMP DP RH WIND PRES REMARKS FRISCO CLEAR 72 63 73 S7 30.14F $$ NCZ095-097-098-100-101-270700- SOUTHERN COAST CITY SKY/WX TMP DP RH WIND PRES REMARKS BEAUFORT CLEAR 70 63 78 S6 30.14F CEDAR ISLAND NOT AVBL JACKSONVILLE CLEAR 67 63 87 CALM 30.13F PINEY ISLAND CLEAR N/A N/A N/A S3 30.14F WILMINGTON MOCLDY 69 64 84 SE3 30.14S $$ NCZ011>013-027>030-043-044-078>080-089-090>093-098-270700- COASTAL PLAIN CITY SKY/WX TMP DP RH WIND PRES REMARKS AHOSKIE CLEAR 68 60 76 S3 30.14R CLINTON CLEAR 67 66 97 CALM 30.16R ELIZABETHTOWN PTCLDY 68 66 92 CALM 30.15R GOLDSBORO PTCLDY 69 69 100 SW5 30.13S GREENVILLE CLEAR 68 64 88 SW5 30.16R HAVELOCK CLEAR 63 60 90 CALM 30.16S KENANSVILLE CLEAR 65 62 92 CALM 30.16R KINSTON CLEAR 67 64 87 SW3 30.15R NEW BERN CLEAR 64 61 90 CALM 30.15F RICHLANDS CLEAR 65 63 93 CALM 30.14F ROCKY MOUNT CLEAR 70 63 78 S7 30.14R WASHINGTON CLEAR 69 64 85 S6 30.14S WHITEVILLE CLEAR 65 64 93 CALM 30.14R $$ AMZ130-135-150-152-154-156-158-170-250-252-270-ANZ085-086-088-633-658-670-270700- MARINE OBSERVATIONS STATION/POSITION TIME TEMP WIND PRES WAVE SWELL AIR SEA DIR/SP/G HT/PER HT/PER (UTC) (F) (DEG/KT/KT) (MB) (FT/S) (FT/S) CHESAPEAKE LIGHT 0600 70 210/ 19/ 19 1020.2 64 E VA BEACH 0550 63 59 200/ 8/ 8 1019.9 2/ 7 2/ 7 DUCK 0600 72 60 1019.7 2 E DUCK 0511 63 N/A 2/ 8 OREGON INLET 0600 72 77 1020.4 13E OREGON INLT 0600 65 N/A 2/ 8 2/ 8 HATTERAS CG 0600 72 75 1020.3 DIAMOND BUOY 0550 76 71 180/ 14/ 16 1020.7 2/ 8 2/ 8 CAPE LOOKOUT 0600 74 170/ 9/ 9 1020.5 BEAUFORT LAB 0600 73 72 1019.9 30 SE NEW RVR IN 0525 74 N/A 2/ 8 27 SE WRIGHTSVLE 0608 76 74 180/ 10/ 14 1019.6 5 SE WRIGHTSVLE 0608 75 73 180/ 8/ 12 1021.1 225 S CAPE HAT 0550 76 77 70/ 12/ 16 1019.7 3/ 7 2/ 7 41 SE CHARLESTON 0550 77 77 130/ 12/ 14 1019.4 2/ 8 2/ 8 $$

USA.gov is the U.S. government's official web portal to all federal, state and local government web resources and services.